PWRBRD2 CYYT-EGLC

Flight info

Callsign PWRBRD2
Flight time 4h 31m
Altitude 41000
Route NICSO DCT 4850N DCT 5040N DCT 5130N DCT 5220N DCT LIMRI/N0495F410 DCT XETBO/N0495F450 DCT EVRIN DCT JETZI DCT AMFUL/N0479F230 P2 SIRIC
Aircraft C750/M-SBDE3FGHRWXY/S

Departure

Time 2026-04-22 02:26
Airport St. John's International Airport (CYYT)

Arrival

Time 2026-04-22 06:58
Airport London City Airport (EGLC)
Time Latitude Longitude Altitude Speed Heading
2026-04-22 02:17 47.61742 -52.75290 481 ft 0 kts 322°
2026-04-22 02:22 47.61750 -52.75298 483 ft 4 kts 333°
2026-04-22 02:22 47.61784 -52.75270 482 ft 9 kts 46°
2026-04-22 02:22 47.61843 -52.75182 481 ft 15 kts 45°
2026-04-22 02:22 47.61924 -52.75027 478 ft 23 kts 52°
2026-04-22 02:23 47.62003 -52.74810 480 ft 23 kts 97°
2026-04-22 02:23 47.61917 -52.74626 477 ft 22 kts 138°
2026-04-22 02:23 47.61806 -52.74483 477 ft 21 kts 138°
2026-04-22 02:23 47.61697 -52.74353 475 ft 20 kts 141°
2026-04-22 02:24 47.61626 -52.74204 474 ft 17 kts 84°
2026-04-22 02:24 47.61636 -52.74181 471 ft 0 kts 29°
2026-04-22 02:25 47.61637 -52.74177 472 ft 2 kts 47°
2026-04-22 02:25 47.61674 -52.74120 474 ft 13 kts 47°
2026-04-22 02:25 47.61788 -52.74166 471 ft 40 kts 321°
2026-04-22 02:26 47.62191 -52.74684 478 ft 109 kts 319°
2026-04-22 02:26 47.62824 -52.75515 680 ft 123 kts 321°
2026-04-22 02:26 47.63462 -52.76442 1052 ft 135 kts 322°
2026-04-22 02:26 47.64198 -52.77448 1312 ft 156 kts 326°
2026-04-22 02:27 47.65229 -52.78132 1483 ft 175 kts 358°
2026-04-22 02:27 47.66511 -52.77817 1643 ft 201 kts 21°
2026-04-22 02:27 47.67661 -52.76432 1757 ft 231 kts 51°
2026-04-22 02:27 47.68094 -52.73982 1904 ft 266 kts 89°
2026-04-22 02:28 47.67588 -52.71332 2692 ft 267 kts 105°
2026-04-22 02:28 47.66902 -52.68745 3326 ft 272 kts 107°
2026-04-22 02:28 47.66245 -52.66125 4009 ft 274 kts 106°
2026-04-22 02:28 47.65615 -52.63458 4754 ft 276 kts 108°
2026-04-22 02:29 47.64968 -52.60763 5469 ft 277 kts 111°
2026-04-22 02:29 47.64305 -52.58061 6166 ft 280 kts 113°
2026-04-22 02:29 47.63633 -52.55313 6786 ft 285 kts 114°
2026-04-22 02:29 47.62960 -52.52540 7471 ft 287 kts 115°
2026-04-22 02:30 47.62278 -52.49741 8209 ft 290 kts 115°
2026-04-22 02:30 47.61588 -52.46920 8984 ft 292 kts 116°
2026-04-22 02:30 47.60892 -52.44075 9671 ft 296 kts 117°
2026-04-22 02:30 47.60184 -52.41189 10227 ft 301 kts 117°
2026-04-22 02:31 47.59435 -52.38168 10235 ft 323 kts 117°
2026-04-22 02:31 47.58645 -52.34956 10413 ft 337 kts 117°
2026-04-22 02:31 47.57857 -52.31691 10986 ft 336 kts 117°
2026-04-22 02:31 47.57055 -52.28429 11452 ft 339 kts 117°
2026-04-22 02:32 47.56238 -52.25142 11940 ft 341 kts 117°
2026-04-22 02:32 47.55421 -52.21835 12389 ft 343 kts 116°
2026-04-22 02:32 47.54599 -52.18502 12861 ft 346 kts 116°
2026-04-22 02:32 47.53769 -52.15149 13316 ft 348 kts 117°
2026-04-22 02:33 47.52930 -52.11774 13786 ft 351 kts 117°
2026-04-22 02:33 47.52086 -52.08380 14198 ft 353 kts 117°
2026-04-22 02:33 47.51259 -52.04948 14571 ft 358 kts 114°
2026-04-22 02:33 47.50831 -52.01254 14940 ft 370 kts 101°
2026-04-22 02:34 47.50953 -51.97402 15337 ft 382 kts 88°
2026-04-22 02:34 47.51671 -51.93548 15729 ft 393 kts 76°
2026-04-22 02:34 47.52669 -51.89760 16131 ft 396 kts 75°
2026-04-22 02:34 47.53666 -51.85949 16526 ft 398 kts 75°
2026-04-22 02:35 47.54656 -51.82102 16929 ft 401 kts 75°
2026-04-22 02:35 47.55653 -51.78236 17357 ft 404 kts 75°
2026-04-22 02:35 47.56662 -51.74349 17785 ft 406 kts 75°
2026-04-22 02:35 47.57678 -51.70419 18226 ft 409 kts 75°
2026-04-22 02:36 47.58694 -51.66470 18631 ft 411 kts 75°
2026-04-22 02:36 47.59712 -51.62512 19081 ft 411 kts 75°
2026-04-22 02:36 47.60387 -51.59888 19358 ft 413 kts 75°
2026-04-22 02:36 47.61409 -51.55899 19758 ft 415 kts 75°
2026-04-22 02:37 47.62782 -51.50530 20323 ft 418 kts 75°
2026-04-22 02:37 47.63465 -51.47856 20593 ft 420 kts 75°
2026-04-22 02:37 47.64503 -51.43788 21018 ft 421 kts 74°
2026-04-22 02:37 47.65540 -51.39716 21442 ft 424 kts 74°
2026-04-22 02:38 47.66934 -51.34226 21992 ft 427 kts 74°
2026-04-22 02:38 47.67629 -51.31486 22267 ft 429 kts 74°
2026-04-22 02:38 47.68681 -51.27335 22691 ft 431 kts 74°
2026-04-22 02:38 47.69737 -51.23156 23087 ft 433 kts 74°
2026-04-22 02:39 47.70799 -51.18947 23482 ft 436 kts 74°
2026-04-22 02:39 47.71865 -51.14714 23841 ft 438 kts 74°
2026-04-22 02:39 47.72937 -51.10450 24150 ft 441 kts 74°
2026-04-22 02:39 47.73997 -51.06226 24457 ft 444 kts 74°
2026-04-22 02:40 47.75077 -51.01913 24751 ft 446 kts 74°
2026-04-22 02:40 47.76161 -50.97577 25044 ft 449 kts 74°
2026-04-22 02:40 47.77249 -50.93214 25345 ft 452 kts 74°
2026-04-22 02:40 47.78344 -50.88817 25642 ft 454 kts 74°
2026-04-22 02:41 47.79442 -50.84398 25931 ft 457 kts 74°
2026-04-22 02:41 47.80544 -50.79953 26227 ft 460 kts 74°
2026-04-22 02:41 47.81653 -50.75472 26518 ft 462 kts 74°
2026-04-22 02:41 47.82765 -50.70967 26776 ft 465 kts 74°
2026-04-22 02:42 47.83884 -50.66429 27069 ft 468 kts 74°
2026-04-22 02:42 47.85008 -50.61865 27370 ft 470 kts 73°
2026-04-22 02:42 47.86130 -50.57293 27678 ft 472 kts 73°
2026-04-22 02:42 47.87260 -50.52681 27953 ft 475 kts 73°
2026-04-22 02:43 47.88393 -50.48046 28236 ft 477 kts 73°
2026-04-22 02:43 47.89532 -50.43379 28514 ft 480 kts 73°
2026-04-22 02:43 47.90660 -50.38743 28792 ft 483 kts 73°
2026-04-22 02:43 47.91807 -50.34026 29068 ft 485 kts 73°
2026-04-22 02:44 47.92955 -50.29290 29338 ft 488 kts 73°
2026-04-22 02:44 47.94114 -50.24501 29610 ft 490 kts 73°
2026-04-22 02:44 47.95271 -50.19707 29945 ft 491 kts 73°
2026-04-22 02:44 47.96426 -50.14914 30225 ft 492 kts 73°
2026-04-22 02:45 47.97583 -50.10096 30469 ft 493 kts 73°
2026-04-22 02:45 47.98739 -50.05274 30709 ft 495 kts 73°
2026-04-22 02:45 47.99900 -50.00427 30940 ft 496 kts 73°
2026-04-22 02:45 48.01126 -49.95616 31229 ft 495 kts 71°
2026-04-22 02:46 48.02332 -49.90818 31527 ft 493 kts 72°
2026-04-22 02:46 48.03518 -49.86015 31792 ft 492 kts 72°
2026-04-22 02:46 48.04715 -49.81238 32051 ft 491 kts 71°
2026-04-22 02:46 48.05919 -49.76480 32349 ft 488 kts 71°
2026-04-22 02:47 48.07108 -49.71733 32601 ft 488 kts 71°
2026-04-22 02:47 48.08289 -49.66965 32866 ft 488 kts 71°
2026-04-22 02:47 48.09468 -49.62213 33145 ft 488 kts 71°
2026-04-22 02:47 48.10652 -49.57461 33441 ft 487 kts 71°
2026-04-22 02:48 48.11816 -49.52772 33749 ft 487 kts 71°
2026-04-22 02:48 48.12988 -49.48020 34074 ft 487 kts 71°
2026-04-22 02:48 48.14158 -49.43273 34379 ft 486 kts 71°
2026-04-22 02:48 48.15329 -49.38520 34691 ft 486 kts 70°
2026-04-22 02:49 48.16497 -49.33768 35005 ft 486 kts 70°
2026-04-22 02:49 48.17659 -49.29027 35361 ft 485 kts 70°
2026-04-22 02:49 48.18821 -49.24275 35731 ft 484 kts 71°
2026-04-22 02:49 48.19974 -49.19551 36095 ft 482 kts 71°
2026-04-22 02:50 48.21123 -49.14835 36453 ft 481 kts 71°
2026-04-22 02:50 48.22267 -49.10124 36815 ft 480 kts 71°
2026-04-22 02:50 48.23408 -49.05418 37176 ft 479 kts 71°
2026-04-22 02:50 48.24547 -49.00715 37515 ft 478 kts 71°
2026-04-22 02:51 48.25678 -48.96032 37868 ft 477 kts 71°
2026-04-22 02:51 48.26804 -48.91355 38216 ft 476 kts 71°
2026-04-22 02:51 48.27925 -48.86694 38558 ft 475 kts 71°
2026-04-22 02:51 48.29044 -48.82032 38851 ft 474 kts 71°
2026-04-22 02:52 48.30159 -48.77376 39109 ft 473 kts 71°
2026-04-22 02:52 48.31269 -48.72728 39382 ft 473 kts 71°
2026-04-22 02:52 48.32379 -48.68075 39647 ft 472 kts 71°
2026-04-22 02:52 48.33483 -48.63436 39911 ft 471 kts 71°
2026-04-22 02:53 48.34582 -48.58805 40185 ft 471 kts 71°
2026-04-22 02:53 48.35682 -48.54165 40461 ft 470 kts 71°
2026-04-22 02:53 48.36775 -48.49539 40737 ft 469 kts 71°
2026-04-22 02:53 48.37865 -48.44918 41012 ft 468 kts 71°
2026-04-22 02:54 48.38955 -48.40288 41082 ft 473 kts 71°
2026-04-22 02:54 48.41172 -48.30839 41085 ft 484 kts 71°
2026-04-22 02:55 48.43431 -48.21171 41101 ft 495 kts 71°
2026-04-22 02:55 48.45728 -48.11292 41103 ft 505 kts 71°
2026-04-22 02:56 48.48061 -48.01216 41112 ft 514 kts 71°
2026-04-22 02:56 48.50409 -47.91027 41108 ft 521 kts 71°
2026-04-22 02:57 48.52788 -47.80651 41106 ft 525 kts 71°
2026-04-22 02:57 48.55161 -47.70252 41112 ft 524 kts 70°
2026-04-22 02:58 48.57507 -47.59916 41110 ft 517 kts 71°
2026-04-22 02:58 48.59816 -47.49700 41102 ft 511 kts 71°
2026-04-22 02:59 48.62099 -47.39545 41105 ft 510 kts 71°
2026-04-22 02:59 48.64373 -47.29385 41111 ft 510 kts 71°
2026-04-22 03:00 48.66630 -47.19252 41124 ft 507 kts 71°
2026-04-22 03:00 48.68858 -47.09198 41124 ft 506 kts 71°
2026-04-22 03:01 48.71089 -46.99085 41135 ft 506 kts 71°
2026-04-22 03:01 48.73314 -46.88946 41135 ft 508 kts 71°
2026-04-22 03:02 48.75522 -46.78838 41688 ft 492 kts 70°
2026-04-22 03:02 48.76560 -46.74053 43037 ft 465 kts 70°
2026-04-22 03:02 48.77559 -46.69451 43620 ft 457 kts 71°
2026-04-22 03:02 48.78554 -46.64879 43826 ft 457 kts 70°
2026-04-22 03:03 48.79546 -46.60299 44058 ft 457 kts 71°
2026-04-22 03:03 48.80520 -46.55775 44313 ft 456 kts 71°
2026-04-22 03:03 48.81503 -46.51197 44562 ft 455 kts 70°
2026-04-22 03:03 48.82486 -46.46625 44792 ft 455 kts 70°
2026-04-22 03:04 48.83464 -46.42066 44988 ft 454 kts 71°
2026-04-22 03:04 48.84439 -46.37507 45163 ft 454 kts 70°
2026-04-22 03:04 48.85416 -46.32926 45148 ft 458 kts 70°
2026-04-22 03:05 48.87391 -46.23636 45159 ft 466 kts 70°
2026-04-22 03:05 48.89388 -46.14199 45173 ft 473 kts 70°
2026-04-22 03:06 48.91395 -46.04672 45172 ft 479 kts 71°
2026-04-22 03:06 48.93433 -45.94944 45183 ft 486 kts 70°
2026-04-22 03:07 48.95493 -45.85079 45184 ft 492 kts 71°
2026-04-22 03:07 48.97563 -45.75098 45194 ft 497 kts 70°
2026-04-22 03:08 48.99651 -45.64990 45193 ft 503 kts 70°
2026-04-22 03:08 49.01751 -45.54772 45201 ft 508 kts 71°
2026-04-22 03:09 49.03862 -45.44443 45206 ft 513 kts 70°
2026-04-22 03:09 49.05982 -45.34019 45205 ft 517 kts 71°
2026-04-22 03:10 49.08112 -45.23489 45213 ft 520 kts 70°
2026-04-22 03:10 49.10237 -45.12928 45214 ft 520 kts 70°
2026-04-22 03:11 49.12336 -45.02440 45214 ft 518 kts 71°
2026-04-22 03:11 49.14432 -44.91911 45219 ft 517 kts 71°
2026-04-22 03:12 49.16519 -44.81369 45224 ft 518 kts 71°
2026-04-22 03:12 49.19625 -44.65571 45225 ft 517 kts 71°
2026-04-22 03:13 49.21684 -44.55026 45230 ft 518 kts 71°
2026-04-22 03:13 49.23735 -44.44466 45228 ft 518 kts 71°
2026-04-22 03:14 49.25778 -44.33892 45232 ft 518 kts 71°
2026-04-22 03:14 49.27809 -44.23314 45232 ft 518 kts 71°
2026-04-22 03:15 49.29827 -44.12738 45236 ft 516 kts 71°
2026-04-22 03:15 49.31824 -44.02234 45244 ft 516 kts 72°
2026-04-22 03:16 49.33821 -43.91656 45245 ft 517 kts 71°
2026-04-22 03:16 49.35811 -43.81061 45254 ft 517 kts 72°
2026-04-22 03:17 49.37793 -43.70446 45255 ft 516 kts 71°
2026-04-22 03:17 49.39760 -43.59851 45240 ft 516 kts 71°
2026-04-22 03:18 49.41718 -43.49245 45240 ft 516 kts 72°
2026-04-22 03:18 49.43665 -43.38637 45246 ft 516 kts 72°
2026-04-22 03:19 49.45603 -43.28015 45269 ft 516 kts 71°
2026-04-22 03:19 49.47526 -43.17409 45259 ft 514 kts 71°
2026-04-22 03:20 49.49438 -43.06814 45260 ft 514 kts 72°
2026-04-22 03:20 49.51338 -42.96216 45259 ft 513 kts 72°
2026-04-22 03:21 49.52909 -42.87407 45258 ft 513 kts 72°
2026-04-22 03:21 49.54784 -42.76829 45273 ft 512 kts 72°
2026-04-22 03:22 49.56650 -42.66256 45272 ft 511 kts 72°
2026-04-22 03:22 49.58501 -42.55691 45275 ft 509 kts 72°
2026-04-22 03:23 49.60335 -42.45170 45272 ft 508 kts 72°
2026-04-22 03:23 49.62157 -42.34645 45272 ft 507 kts 72°
2026-04-22 03:24 49.63964 -42.24154 45268 ft 506 kts 72°
2026-04-22 03:24 49.65759 -42.13664 45268 ft 505 kts 72°
2026-04-22 03:25 49.67545 -42.03169 45269 ft 506 kts 72°
2026-04-22 03:25 49.69323 -41.92653 45275 ft 506 kts 72°
2026-04-22 03:26 49.71096 -41.82107 45282 ft 509 kts 72°
2026-04-22 03:26 49.72866 -41.71511 45282 ft 510 kts 72°
2026-04-22 03:27 49.74629 -41.60891 45283 ft 510 kts 72°
2026-04-22 03:27 49.76382 -41.50265 45279 ft 510 kts 72°
2026-04-22 03:28 49.78127 -41.39623 45282 ft 510 kts 72°
2026-04-22 03:28 49.79864 -41.28960 45278 ft 511 kts 72°
2026-04-22 03:29 49.81591 -41.18288 45275 ft 511 kts 72°
2026-04-22 03:29 49.83309 -41.07607 45278 ft 511 kts 72°
2026-04-22 03:30 49.85018 -40.96913 45288 ft 511 kts 72°
2026-04-22 03:30 49.86720 -40.86190 45272 ft 513 kts 72°
2026-04-22 03:31 49.88415 -40.75441 45282 ft 513 kts 72°
2026-04-22 03:31 49.90102 -40.64679 45277 ft 514 kts 72°
2026-04-22 03:32 49.91779 -40.53905 45275 ft 514 kts 73°
2026-04-22 03:32 49.93438 -40.43175 45280 ft 515 kts 73°
2026-04-22 03:33 49.95103 -40.32337 45291 ft 516 kts 73°
2026-04-22 03:33 49.96762 -40.21465 45291 ft 517 kts 73°
2026-04-22 03:34 49.98412 -40.10571 45289 ft 518 kts 73°
2026-04-22 03:34 50.00051 -39.99679 45284 ft 518 kts 73°
2026-04-22 03:35 50.01637 -39.88755 45292 ft 518 kts 74°
2026-04-22 03:35 50.03209 -39.77826 45287 ft 518 kts 73°
2026-04-22 03:36 50.04779 -39.66880 45278 ft 518 kts 74°
2026-04-22 03:36 50.06332 -39.55927 45288 ft 517 kts 74°
2026-04-22 03:37 50.07876 -39.44995 45280 ft 517 kts 74°
2026-04-22 03:37 50.09405 -39.34067 45294 ft 517 kts 74°
2026-04-22 03:38 50.10926 -39.23131 45284 ft 516 kts 74°
2026-04-22 03:38 50.12435 -39.12189 45277 ft 517 kts 74°
2026-04-22 03:39 50.13928 -39.01292 45276 ft 517 kts 74°
2026-04-22 03:39 50.15419 -38.90321 45271 ft 517 kts 74°
2026-04-22 03:40 50.16901 -38.79339 45264 ft 518 kts 75°
2026-04-22 03:40 50.18375 -38.68323 45263 ft 518 kts 75°
2026-04-22 03:41 50.19836 -38.57324 45272 ft 516 kts 75°
2026-04-22 03:41 50.21275 -38.46402 45269 ft 513 kts 75°
2026-04-22 03:42 50.22709 -38.35448 45282 ft 513 kts 75°
2026-04-22 03:42 50.24119 -38.24580 45290 ft 514 kts 75°
2026-04-22 03:43 50.25528 -38.13635 45268 ft 512 kts 75°
2026-04-22 03:43 50.26922 -38.02725 45265 ft 512 kts 76°
2026-04-22 03:44 50.28307 -37.91802 45261 ft 512 kts 76°
2026-04-22 03:44 50.29673 -37.80942 45261 ft 513 kts 76°
2026-04-22 03:45 50.31039 -37.69987 45256 ft 513 kts 76°
2026-04-22 03:45 50.32394 -37.59032 45258 ft 512 kts 76°
2026-04-22 03:46 50.33735 -37.48108 45260 ft 511 kts 76°
2026-04-22 03:46 50.35065 -37.37176 45255 ft 511 kts 76°
2026-04-22 03:47 50.36388 -37.26228 45248 ft 512 kts 76°
2026-04-22 03:47 50.37700 -37.15259 45247 ft 512 kts 77°
2026-04-22 03:48 50.38988 -37.04393 45254 ft 505 kts 77°
2026-04-22 03:48 50.40256 -36.93636 45255 ft 505 kts 77°
2026-04-22 03:49 50.41521 -36.82792 45257 ft 506 kts 77°
2026-04-22 03:49 50.42788 -36.71856 45259 ft 506 kts 77°
2026-04-22 03:50 50.44026 -36.61056 45248 ft 505 kts 77°
2026-04-22 03:50 50.45268 -36.50140 45246 ft 505 kts 77°
2026-04-22 03:51 50.46483 -36.39360 45256 ft 505 kts 77°
2026-04-22 03:51 50.47705 -36.28432 45252 ft 505 kts 77°
2026-04-22 03:52 50.48903 -36.17622 45248 ft 506 kts 77°
2026-04-22 03:52 50.50097 -36.06740 45249 ft 506 kts 77°
2026-04-22 03:53 50.51283 -35.95847 45239 ft 507 kts 77°
2026-04-22 03:53 50.52461 -35.84920 45243 ft 507 kts 78°
2026-04-22 03:54 50.53630 -35.73975 45231 ft 507 kts 78°
2026-04-22 03:54 50.54787 -35.63038 45234 ft 507 kts 78°
2026-04-22 03:55 50.55770 -35.53671 45236 ft 507 kts 78°
2026-04-22 03:55 50.56909 -35.42717 45237 ft 507 kts 78°
2026-04-22 03:56 50.58030 -35.31838 45234 ft 507 kts 78°
2026-04-22 03:56 50.59150 -35.20866 45226 ft 507 kts 78°
2026-04-22 03:57 50.60259 -35.09882 45222 ft 508 kts 78°
2026-04-22 03:57 50.61359 -34.98894 45219 ft 508 kts 78°
2026-04-22 03:58 50.62440 -34.87985 45222 ft 508 kts 78°
2026-04-22 03:58 50.63518 -34.76990 45231 ft 507 kts 78°
2026-04-22 03:59 50.64586 -34.65994 45221 ft 508 kts 79°
2026-04-22 03:59 50.65643 -34.54995 45210 ft 507 kts 79°
2026-04-22 04:00 50.66687 -34.44020 45225 ft 506 kts 79°
2026-04-22 04:00 50.67721 -34.33035 45223 ft 506 kts 79°
2026-04-22 04:01 50.68745 -34.22053 45212 ft 506 kts 79°
2026-04-22 04:01 50.69751 -34.11129 45205 ft 505 kts 79°
2026-04-22 04:02 50.70752 -34.00165 45207 ft 505 kts 79°
2026-04-22 04:02 50.71742 -33.89199 45207 ft 505 kts 79°
2026-04-22 04:03 50.72721 -33.78233 45199 ft 505 kts 79°
2026-04-22 04:03 50.73689 -33.67267 45194 ft 505 kts 80°
2026-04-22 04:04 50.74650 -33.56259 45184 ft 506 kts 80°
2026-04-22 04:04 50.75600 -33.45258 45194 ft 506 kts 80°
2026-04-22 04:05 50.76389 -33.36021 45186 ft 506 kts 80°
2026-04-22 04:05 50.77315 -33.25075 45178 ft 506 kts 80°
2026-04-22 04:06 50.78237 -33.14044 45174 ft 506 kts 80°
2026-04-22 04:06 50.79147 -33.03020 45170 ft 505 kts 81°
2026-04-22 04:07 50.80046 -32.92006 45164 ft 505 kts 81°
2026-04-22 04:07 50.80935 -32.80992 45156 ft 505 kts 81°
2026-04-22 04:08 50.81812 -32.69983 45155 ft 504 kts 81°
2026-04-22 04:08 50.82678 -32.58980 45157 ft 504 kts 81°
2026-04-22 04:09 50.83525 -32.48078 45157 ft 501 kts 81°
2026-04-22 04:09 50.84363 -32.37177 45149 ft 498 kts 81°
2026-04-22 04:10 50.85186 -32.26318 45132 ft 496 kts 81°
2026-04-22 04:10 50.85996 -32.15503 45142 ft 493 kts 81°
2026-04-22 04:11 50.86788 -32.04785 45128 ft 488 kts 81°
2026-04-22 04:11 50.87559 -31.94226 45123 ft 484 kts 81°
2026-04-22 04:12 50.88321 -31.83665 45110 ft 481 kts 81°
2026-04-22 04:12 50.89054 -31.73309 46276 ft 453 kts 82°
2026-04-22 04:13 50.89396 -31.68425 47050 ft 438 kts 81°
2026-04-22 04:13 50.89738 -31.63620 47091 ft 441 kts 81°
2026-04-22 04:13 50.90416 -31.53888 47103 ft 448 kts 82°
2026-04-22 04:14 50.91092 -31.43996 47126 ft 453 kts 81°
2026-04-22 04:14 50.91771 -31.33993 47123 ft 460 kts 82°
2026-04-22 04:15 50.92440 -31.23947 47500 ft 453 kts 81°
2026-04-22 04:15 50.92756 -31.19116 48426 ft 434 kts 82°
2026-04-22 04:15 50.93072 -31.14350 48480 ft 436 kts 82°
2026-04-22 04:16 50.93389 -31.09569 48693 ft 434 kts 82°
2026-04-22 04:16 50.94004 -31.00025 48908 ft 435 kts 81°
2026-04-22 04:16 50.94307 -30.95270 49123 ft 433 kts 82°
2026-04-22 04:17 50.94613 -30.90498 49097 ft 436 kts 81°
2026-04-22 04:17 50.95223 -30.80843 49089 ft 441 kts 82°
2026-04-22 04:18 50.95824 -30.71164 49093 ft 446 kts 82°
2026-04-22 04:18 50.96429 -30.61327 49092 ft 451 kts 82°
2026-04-22 04:19 50.97031 -30.51362 49097 ft 455 kts 83°
2026-04-22 04:19 50.97631 -30.41313 49091 ft 459 kts 82°
2026-04-22 04:20 50.98226 -30.31160 49071 ft 464 kts 82°
2026-04-22 04:20 50.98809 -30.21076 49872 ft 446 kts 83°
2026-04-22 04:20 50.99082 -30.16256 50483 ft 435 kts 83°
2026-04-22 04:21 50.99357 -30.11464 50448 ft 436 kts 82°
2026-04-22 04:21 50.99899 -30.01887 50475 ft 436 kts 82°
2026-04-22 04:22 51.01100 -29.92513 50485 ft 432 kts 75°
2026-04-22 04:22 51.02404 -29.83357 50692 ft 420 kts 75°
2026-04-22 04:22 51.03052 -29.78848 50822 ft 417 kts 75°
2026-04-22 04:23 51.03701 -29.74379 50938 ft 414 kts 75°
2026-04-22 04:23 51.04338 -29.69933 51051 ft 411 kts 75°
2026-04-22 04:23 51.04965 -29.65499 51012 ft 411 kts 76°
2026-04-22 04:24 51.06219 -29.56660 51052 ft 410 kts 76°
2026-04-22 04:24 51.06850 -29.52212 50598 ft 420 kts 75°
2026-04-22 04:24 51.07501 -29.47594 50225 ft 432 kts 76°
2026-04-22 04:25 51.08807 -29.38245 50054 ft 440 kts 76°
2026-04-22 04:25 51.09487 -29.33385 49773 ft 449 kts 76°
2026-04-22 04:25 51.10160 -29.28559 49495 ft 458 kts 76°
2026-04-22 04:25 51.10850 -29.23565 49212 ft 466 kts 76°
2026-04-22 04:26 51.11547 -29.18509 49029 ft 466 kts 76°
2026-04-22 04:26 51.12922 -29.08503 49035 ft 459 kts 76°
2026-04-22 04:27 51.14271 -28.98623 49024 ft 455 kts 76°
2026-04-22 04:27 51.15604 -28.88784 49033 ft 453 kts 76°
2026-04-22 04:28 51.16930 -28.78942 48504 ft 462 kts 76°
2026-04-22 04:28 51.17613 -28.73854 47987 ft 476 kts 77°
2026-04-22 04:28 51.18310 -28.68622 47489 ft 489 kts 76°
2026-04-22 04:28 51.19023 -28.63258 47044 ft 499 kts 77°
2026-04-22 04:29 51.19735 -28.57876 47033 ft 493 kts 77°
2026-04-22 04:29 51.20427 -28.52619 47028 ft 477 kts 77°
2026-04-22 04:29 51.21103 -28.47481 47022 ft 470 kts 77°
2026-04-22 04:30 51.22430 -28.37344 47011 ft 463 kts 77°
2026-04-22 04:30 51.23727 -28.27356 47005 ft 457 kts 77°
2026-04-22 04:31 51.25003 -28.17457 47002 ft 453 kts 77°
2026-04-22 04:31 51.26258 -28.07652 46998 ft 449 kts 76°
2026-04-22 04:32 51.27487 -27.97988 47004 ft 445 kts 77°
2026-04-22 04:32 51.28718 -27.88236 47005 ft 451 kts 77°
2026-04-22 04:33 51.29961 -27.78326 47020 ft 458 kts 77°
2026-04-22 04:33 51.31216 -27.68233 47014 ft 465 kts 77°
2026-04-22 04:34 51.32470 -27.58076 46999 ft 472 kts 77°
2026-04-22 04:34 51.33742 -27.47695 46999 ft 478 kts 78°
2026-04-22 04:35 51.35019 -27.37197 46988 ft 483 kts 78°
2026-04-22 04:35 51.36285 -27.26689 46986 ft 478 kts 77°
2026-04-22 04:36 51.37529 -27.16302 46983 ft 472 kts 78°
2026-04-22 04:36 51.38739 -27.06098 46979 ft 467 kts 78°
2026-04-22 04:37 51.39938 -26.95926 46983 ft 462 kts 78°
2026-04-22 04:37 51.41114 -26.85860 46971 ft 457 kts 77°
2026-04-22 04:38 51.42273 -26.75868 46967 ft 457 kts 78°
2026-04-22 04:38 51.43424 -26.65861 46988 ft 461 kts 78°
2026-04-22 04:39 51.44584 -26.55698 46973 ft 463 kts 78°
2026-04-22 04:39 51.45735 -26.45526 46959 ft 464 kts 78°
2026-04-22 04:40 51.46878 -26.35349 46964 ft 463 kts 78°
2026-04-22 04:40 51.48008 -26.25201 46962 ft 463 kts 79°
2026-04-22 04:41 51.49131 -26.15033 46963 ft 464 kts 79°
2026-04-22 04:41 51.50246 -26.04854 46973 ft 464 kts 79°
2026-04-22 04:42 51.51354 -25.94650 46960 ft 463 kts 79°
2026-04-22 04:42 51.52451 -25.84466 46947 ft 463 kts 79°
2026-04-22 04:43 51.53538 -25.74282 46949 ft 463 kts 79°
2026-04-22 04:43 51.54618 -25.64078 46945 ft 463 kts 79°
2026-04-22 04:44 51.55687 -25.53896 46944 ft 463 kts 79°
2026-04-22 04:44 51.56748 -25.43688 46945 ft 463 kts 80°
2026-04-22 04:45 51.57795 -25.33541 46947 ft 463 kts 80°
2026-04-22 04:45 51.58839 -25.23323 46946 ft 463 kts 80°
2026-04-22 04:46 51.59876 -25.13088 46932 ft 463 kts 80°
2026-04-22 04:46 51.60902 -25.02855 46939 ft 462 kts 80°
2026-04-22 04:47 51.61919 -24.92636 46930 ft 462 kts 80°
2026-04-22 04:47 51.62920 -24.82472 46936 ft 461 kts 81°
2026-04-22 04:48 51.63917 -24.72263 46937 ft 461 kts 81°
2026-04-22 04:48 51.64902 -24.62080 46949 ft 460 kts 81°
2026-04-22 04:49 51.65880 -24.51868 46943 ft 461 kts 81°
2026-04-22 04:49 51.66852 -24.41632 46943 ft 462 kts 81°
2026-04-22 04:50 51.67808 -24.31454 46929 ft 462 kts 81°
2026-04-22 04:50 51.68758 -24.21257 46915 ft 461 kts 81°
2026-04-22 04:51 51.69699 -24.11049 46925 ft 460 kts 81°
2026-04-22 04:51 51.70630 -24.00856 46922 ft 460 kts 81°
2026-04-22 04:52 51.71550 -23.90672 46911 ft 459 kts 81°
2026-04-22 04:52 51.72460 -23.80499 46905 ft 459 kts 81°
2026-04-22 04:53 51.73362 -23.70317 46922 ft 458 kts 82°
2026-04-22 04:53 51.74254 -23.60138 46919 ft 458 kts 82°
2026-04-22 04:54 51.75139 -23.49951 46911 ft 458 kts 82°
2026-04-22 04:54 51.75868 -23.41471 46903 ft 459 kts 82°
2026-04-22 04:55 51.76885 -23.29507 46913 ft 459 kts 82°
2026-04-22 04:55 51.77601 -23.21000 46924 ft 460 kts 82°
2026-04-22 04:56 51.78457 -23.10732 46912 ft 460 kts 82°
2026-04-22 04:56 51.79301 -23.00497 46919 ft 460 kts 82°
2026-04-22 04:57 51.80135 -22.90266 46917 ft 460 kts 82°
2026-04-22 04:57 51.80960 -22.80029 46910 ft 460 kts 82°
2026-04-22 04:58 51.81778 -22.69784 46899 ft 460 kts 82°
2026-04-22 04:58 51.82585 -22.59539 46896 ft 459 kts 82°
2026-04-22 04:59 51.83380 -22.49348 46903 ft 460 kts 83°
2026-04-22 04:59 51.84172 -22.39060 46902 ft 461 kts 83°
2026-04-22 05:00 51.84957 -22.28763 46900 ft 460 kts 83°
2026-04-22 05:00 51.85729 -22.18492 46907 ft 459 kts 83°
2026-04-22 05:01 51.86493 -22.08228 46910 ft 460 kts 83°
2026-04-22 05:01 51.87247 -21.97955 46923 ft 459 kts 83°
2026-04-22 05:02 51.87989 -21.87749 46892 ft 459 kts 83°
2026-04-22 05:02 51.88725 -21.77471 46904 ft 461 kts 83°
2026-04-22 05:03 51.89456 -21.67153 46896 ft 461 kts 83°
2026-04-22 05:03 51.89814 -21.62036 46889 ft 450 kts 83°
2026-04-22 05:03 51.90157 -21.57097 46886 ft 434 kts 83°
2026-04-22 05:03 51.90489 -21.52313 46905 ft 423 kts 83°
2026-04-22 05:04 51.90816 -21.47570 46900 ft 425 kts 83°
2026-04-22 05:04 51.91443 -21.38370 46908 ft 432 kts 84°
2026-04-22 05:05 51.92102 -21.28603 46920 ft 440 kts 84°
2026-04-22 05:05 51.92764 -21.18660 46921 ft 447 kts 84°
2026-04-22 05:06 51.93427 -21.08560 46910 ft 454 kts 84°
2026-04-22 05:06 51.94092 -20.98303 46910 ft 460 kts 84°
2026-04-22 05:07 51.94752 -20.88025 46898 ft 461 kts 84°
2026-04-22 05:07 51.95399 -20.77696 46894 ft 461 kts 84°
2026-04-22 05:08 51.96044 -20.67348 46909 ft 461 kts 84°
2026-04-22 05:08 51.96678 -20.56981 46919 ft 461 kts 84°
2026-04-22 05:09 51.97303 -20.46612 46913 ft 460 kts 84°
2026-04-22 05:09 51.97919 -20.36268 46914 ft 460 kts 84°
2026-04-22 05:10 51.98524 -20.25919 46924 ft 460 kts 85°
2026-04-22 05:10 51.99121 -20.15574 46923 ft 460 kts 85°
2026-04-22 05:11 51.99708 -20.05242 46907 ft 459 kts 85°
2026-04-22 05:11 52.00118 -19.94909 46917 ft 459 kts 88°
2026-04-22 05:12 52.00309 -19.84609 46913 ft 460 kts 88°
2026-04-22 05:12 52.00523 -19.74241 46923 ft 459 kts 88°
2026-04-22 05:13 52.00709 -19.63844 46924 ft 460 kts 88°
2026-04-22 05:13 52.00897 -19.53435 46936 ft 461 kts 89°
2026-04-22 05:14 52.01070 -19.43027 46915 ft 462 kts 89°
2026-04-22 05:14 52.01236 -19.32633 46929 ft 461 kts 89°
2026-04-22 05:15 52.01392 -19.22221 46920 ft 462 kts 89°
2026-04-22 05:15 52.01539 -19.11810 46941 ft 460 kts 89°
2026-04-22 05:16 52.01678 -19.01421 46939 ft 460 kts 89°
2026-04-22 05:16 52.01806 -18.91044 46948 ft 459 kts 89°
2026-04-22 05:17 52.01926 -18.80625 46932 ft 462 kts 89°
2026-04-22 05:17 52.02037 -18.70195 46939 ft 462 kts 89°
2026-04-22 05:18 52.02185 -18.54565 46940 ft 462 kts 89°
2026-04-22 05:18 52.02273 -18.44113 46942 ft 464 kts 90°
2026-04-22 05:19 52.02352 -18.33653 46937 ft 464 kts 90°
2026-04-22 05:19 52.02421 -18.23184 46938 ft 463 kts 90°
2026-04-22 05:20 52.02482 -18.12725 46939 ft 462 kts 90°
2026-04-22 05:20 52.02532 -18.02257 46944 ft 463 kts 90°
2026-04-22 05:21 52.02574 -17.91801 46941 ft 462 kts 90°
2026-04-22 05:21 52.02606 -17.81358 46939 ft 464 kts 90°
2026-04-22 05:22 52.02630 -17.70877 46943 ft 466 kts 90°
2026-04-22 05:22 52.02643 -17.60377 46950 ft 464 kts 90°
2026-04-22 05:23 52.02648 -17.49897 46940 ft 464 kts 90°
2026-04-22 05:23 52.02643 -17.39397 46946 ft 464 kts 90°
2026-04-22 05:24 52.02629 -17.28903 46954 ft 466 kts 91°
2026-04-22 05:24 52.02605 -17.18374 46960 ft 467 kts 91°
2026-04-22 05:25 52.02573 -17.07833 46951 ft 467 kts 91°
2026-04-22 05:25 52.02530 -16.97306 46951 ft 465 kts 91°
2026-04-22 05:26 52.02479 -16.86789 46951 ft 465 kts 91°
2026-04-22 05:26 52.02418 -16.76264 46967 ft 466 kts 91°
2026-04-22 05:27 52.02348 -16.65806 46961 ft 467 kts 91°
2026-04-22 05:27 52.02268 -16.55272 46960 ft 468 kts 91°
2026-04-22 05:28 52.02178 -16.44688 46961 ft 467 kts 91°
2026-04-22 05:28 52.02080 -16.34140 46960 ft 466 kts 92°
2026-04-22 05:29 52.01971 -16.23655 46967 ft 467 kts 92°
2026-04-22 05:29 52.01855 -16.13092 46969 ft 469 kts 92°
2026-04-22 05:30 52.01726 -16.02510 46964 ft 470 kts 92°
2026-04-22 05:30 52.01591 -15.91937 46970 ft 469 kts 92°
2026-04-22 05:31 52.01444 -15.81357 46972 ft 468 kts 92°
2026-04-22 05:31 52.01288 -15.70753 46976 ft 469 kts 92°
2026-04-22 05:32 52.01122 -15.60119 46963 ft 470 kts 92°
2026-04-22 05:32 52.00946 -15.49539 46971 ft 469 kts 92°
2026-04-22 05:33 52.00763 -15.38971 46978 ft 469 kts 92°
2026-04-22 05:33 52.00568 -15.28379 46983 ft 469 kts 93°
2026-04-22 05:34 52.00365 -15.17788 46995 ft 469 kts 92°
2026-04-22 05:34 52.00151 -15.07193 46995 ft 469 kts 93°
2026-04-22 05:35 52.00009 -14.96624 46973 ft 469 kts 90°
2026-04-22 05:35 52.00058 -14.86048 46973 ft 470 kts 91°
2026-04-22 05:36 52.00076 -14.75450 46984 ft 470 kts 90°
2026-04-22 05:36 52.00097 -14.66607 46982 ft 470 kts 91°
2026-04-22 05:37 52.00105 -14.55967 46990 ft 470 kts 91°
2026-04-22 05:37 52.00107 -14.45328 46988 ft 473 kts 91°
2026-04-22 05:38 52.00097 -14.34759 46999 ft 472 kts 91°
2026-04-22 05:38 52.00079 -14.24127 46993 ft 472 kts 91°
2026-04-22 05:39 52.00051 -14.13448 46998 ft 473 kts 91°
2026-04-22 05:39 52.00013 -14.02764 47000 ft 473 kts 91°
2026-04-22 05:40 52.00001 -13.92070 47004 ft 473 kts 91°
2026-04-22 05:40 52.00041 -13.81418 46992 ft 473 kts 91°
2026-04-22 05:41 52.00025 -13.70746 47013 ft 477 kts 91°
2026-04-22 05:41 52.00032 -13.59986 47028 ft 476 kts 91°
2026-04-22 05:42 52.00008 -13.49303 47020 ft 475 kts 91°
2026-04-22 05:42 51.99986 -13.38583 47020 ft 474 kts 91°
2026-04-22 05:43 51.99948 -13.27868 47021 ft 475 kts 91°
2026-04-22 05:43 51.99903 -13.17118 47030 ft 477 kts 91°
2026-04-22 05:44 51.99848 -13.06356 47034 ft 478 kts 92°
2026-04-22 05:44 51.99782 -12.95595 47027 ft 476 kts 91°
2026-04-22 05:45 51.99708 -12.84838 47023 ft 476 kts 92°
2026-04-22 05:45 51.99623 -12.74146 47042 ft 477 kts 92°
2026-04-22 05:46 51.99529 -12.63369 47045 ft 479 kts 92°
2026-04-22 05:46 51.99424 -12.52585 47051 ft 479 kts 92°
2026-04-22 05:47 51.99310 -12.41801 47042 ft 479 kts 92°
2026-04-22 05:47 51.99185 -12.31016 47036 ft 477 kts 92°
2026-04-22 05:48 51.99116 -12.25423 47054 ft 475 kts 92°
2026-04-22 05:48 51.99058 -12.20463 47026 ft 406 kts 92°
2026-04-22 05:48 51.99005 -12.16224 46984 ft 351 kts 93°
2026-04-22 05:49 51.98952 -12.12484 46956 ft 313 kts 93°
2026-04-22 05:49 51.98901 -12.09033 46981 ft 305 kts 93°
2026-04-22 05:49 51.98801 -12.02097 47074 ft 312 kts 92°
2026-04-22 05:50 51.98748 -11.98495 46838 ft 326 kts 93°
2026-04-22 05:50 51.98704 -11.95595 46665 ft 337 kts 93°
2026-04-22 05:50 51.98645 -11.91718 46437 ft 351 kts 93°
2026-04-22 05:50 51.98584 -11.87682 46229 ft 364 kts 93°
2026-04-22 05:51 51.98517 -11.83506 46012 ft 377 kts 93°
2026-04-22 05:51 51.98447 -11.79171 45787 ft 391 kts 93°
2026-04-22 05:51 51.98374 -11.74681 45543 ft 404 kts 93°
2026-04-22 05:51 51.98308 -11.70815 45339 ft 415 kts 93°
2026-04-22 05:53 51.98160 -11.62224 45122 ft 432 kts 93°
2026-04-22 05:53 51.97978 -11.52313 45093 ft 446 kts 92°
2026-04-22 05:54 51.97782 -11.42099 45080 ft 459 kts 93°
2026-04-22 05:54 51.97681 -11.36893 45201 ft 456 kts 93°
2026-04-22 05:54 51.97582 -11.31878 45418 ft 435 kts 93°
2026-04-22 05:55 51.97480 -11.26999 45619 ft 432 kts 94°
2026-04-22 05:55 51.97376 -11.22160 45835 ft 428 kts 94°
2026-04-22 05:55 51.97273 -11.17353 46061 ft 424 kts 93°
2026-04-22 05:55 51.97170 -11.12575 46280 ft 423 kts 93°
2026-04-22 05:56 51.97065 -11.07831 46487 ft 420 kts 93°
2026-04-22 05:56 51.96957 -11.03099 46737 ft 419 kts 93°
2026-04-22 05:56 51.96849 -10.98444 46994 ft 417 kts 93°
2026-04-22 05:56 51.96740 -10.93736 47079 ft 420 kts 93°
2026-04-22 05:57 51.96509 -10.84155 47087 ft 430 kts 94°
2026-04-22 05:57 51.96264 -10.74346 47102 ft 440 kts 93°
2026-04-22 05:58 51.96007 -10.64331 47107 ft 449 kts 94°
2026-04-22 05:58 51.95736 -10.54114 47115 ft 458 kts 94°
2026-04-22 05:59 51.95449 -10.43672 47105 ft 467 kts 94°
2026-04-22 05:59 51.95149 -10.33063 47117 ft 474 kts 94°
2026-04-22 06:00 51.94833 -10.22294 47116 ft 482 kts 94°
2026-04-22 06:00 51.94505 -10.11388 47116 ft 487 kts 94°
2026-04-22 06:01 51.94163 -10.00403 47116 ft 488 kts 94°
2026-04-22 06:01 51.93811 -9.89409 47117 ft 488 kts 94°
2026-04-22 06:02 51.93449 -9.78434 47114 ft 487 kts 94°
2026-04-22 06:02 51.93078 -9.67482 47118 ft 487 kts 94°
2026-04-22 06:03 51.92696 -9.56532 47126 ft 487 kts 94°
2026-04-22 06:03 51.92304 -9.45561 47132 ft 487 kts 94°
2026-04-22 06:04 51.91902 -9.34607 47147 ft 487 kts 94°
2026-04-22 06:04 51.91491 -9.23701 47136 ft 489 kts 95°
2026-04-22 06:05 51.91066 -9.12667 47148 ft 492 kts 94°
2026-04-22 06:05 51.90628 -9.01612 47153 ft 492 kts 94°
2026-04-22 06:06 51.90181 -8.90551 47163 ft 492 kts 94°
2026-04-22 06:06 51.89722 -8.79478 47165 ft 493 kts 94°
2026-04-22 06:07 51.89252 -8.68371 47167 ft 495 kts 95°
2026-04-22 06:07 51.88769 -8.57230 47165 ft 496 kts 95°
2026-04-22 06:08 51.88275 -8.46070 47163 ft 498 kts 95°
2026-04-22 06:08 51.87770 -8.34892 47181 ft 498 kts 95°
2026-04-22 06:09 51.87253 -8.23700 47174 ft 499 kts 95°
2026-04-22 06:09 51.86725 -8.12507 47185 ft 499 kts 95°
2026-04-22 06:10 51.86186 -8.01296 47182 ft 500 kts 95°
2026-04-22 06:10 51.85634 -7.90061 47184 ft 501 kts 95°
2026-04-22 06:11 51.85073 -7.78843 47187 ft 499 kts 95°
2026-04-22 06:11 51.84507 -7.67742 47193 ft 499 kts 95°
2026-04-22 06:12 51.83927 -7.56587 47187 ft 498 kts 95°
2026-04-22 06:12 51.83335 -7.45387 47184 ft 499 kts 96°
2026-04-22 06:13 51.82733 -7.34226 47197 ft 499 kts 95°
2026-04-22 06:13 51.82124 -7.23114 47185 ft 499 kts 95°
2026-04-22 06:14 51.81497 -7.11900 47194 ft 503 kts 96°
2026-04-22 06:14 51.80856 -7.00594 47216 ft 506 kts 96°
2026-04-22 06:15 51.80198 -6.89209 47210 ft 509 kts 96°
2026-04-22 06:15 51.79529 -6.77815 47211 ft 510 kts 96°
2026-04-22 06:16 51.78849 -6.66413 47209 ft 510 kts 96°
2026-04-22 06:16 51.78128 -6.55001 47210 ft 510 kts 98°
2026-04-22 06:17 51.77090 -6.43741 47213 ft 508 kts 99°
2026-04-22 06:17 51.76063 -6.32436 47216 ft 509 kts 98°
2026-04-22 06:18 51.75014 -6.21140 47219 ft 510 kts 98°
2026-04-22 06:18 51.73953 -6.09810 47206 ft 510 kts 98°
2026-04-22 06:19 51.72882 -5.98480 47221 ft 511 kts 99°
2026-04-22 06:19 51.71795 -5.87133 47220 ft 512 kts 99°
2026-04-22 06:20 51.70886 -5.77707 47220 ft 513 kts 98°
2026-04-22 06:20 51.69592 -5.64462 47229 ft 515 kts 99°
2026-04-22 06:21 51.68464 -5.53030 47239 ft 516 kts 99°
2026-04-22 06:21 51.67322 -5.41585 47239 ft 518 kts 99°
2026-04-22 06:22 51.66167 -5.30116 47241 ft 520 kts 99°
2026-04-22 06:22 51.65194 -5.20547 47247 ft 520 kts 99°
2026-04-22 06:23 51.63990 -5.08810 47245 ft 520 kts 99°
2026-04-22 06:23 51.62798 -4.97313 47241 ft 521 kts 99°
2026-04-22 06:24 51.60987 -4.80064 47238 ft 521 kts 99°
2026-04-22 06:25 51.59764 -4.68554 47237 ft 522 kts 99°
2026-04-22 06:25 51.58536 -4.57112 47241 ft 523 kts 99°
2026-04-22 06:26 51.57289 -4.45593 47241 ft 523 kts 99°
2026-04-22 06:26 51.56029 -4.34078 47255 ft 523 kts 99°
2026-04-22 06:27 51.54757 -4.22553 47256 ft 524 kts 99°
2026-04-22 06:27 51.53469 -4.10999 47251 ft 525 kts 100°
2026-04-22 06:28 51.52176 -3.99505 47253 ft 525 kts 100°
2026-04-22 06:28 51.51527 -3.93786 46674 ft 514 kts 100°
2026-04-22 06:28 51.50891 -3.88213 46005 ft 502 kts 100°
2026-04-22 06:28 51.50267 -3.82752 45360 ft 491 kts 100°
2026-04-22 06:29 51.49662 -3.77476 44702 ft 481 kts 100°
2026-04-22 06:29 51.49062 -3.72272 44082 ft 470 kts 100°
2026-04-22 06:29 51.48462 -3.67095 43464 ft 462 kts 100°
2026-04-22 06:29 51.47899 -3.62093 42867 ft 461 kts 98°
2026-04-22 06:30 51.47549 -3.56940 42270 ft 469 kts 95°
2026-04-22 06:30 51.47292 -3.51719 41654 ft 470 kts 94°
2026-04-22 06:30 51.47020 -3.46473 41035 ft 475 kts 95°
2026-04-22 06:30 51.46687 -3.41153 40407 ft 480 kts 96°
2026-04-22 06:31 51.46348 -3.35851 39809 ft 477 kts 96°
2026-04-22 06:31 51.46041 -3.30549 39179 ft 477 kts 95°
2026-04-22 06:31 51.45741 -3.25260 38486 ft 475 kts 95°
2026-04-22 06:31 51.45421 -3.19999 37863 ft 476 kts 96°
2026-04-22 06:32 51.45088 -3.14703 37234 ft 478 kts 96°
2026-04-22 06:32 51.44760 -3.09387 36604 ft 480 kts 95°
2026-04-22 06:32 51.44436 -3.04037 35971 ft 482 kts 95°
2026-04-22 06:32 51.44104 -2.98674 35334 ft 484 kts 95°
2026-04-22 06:33 51.43763 -2.93300 34693 ft 486 kts 95°
2026-04-22 06:33 51.43420 -2.87903 34018 ft 488 kts 95°
2026-04-22 06:33 51.43076 -2.82467 33396 ft 492 kts 95°
2026-04-22 06:33 51.42731 -2.77071 32731 ft 492 kts 95°
2026-04-22 06:34 51.42377 -2.71611 32081 ft 494 kts 95°
2026-04-22 06:34 51.42019 -2.66133 31429 ft 495 kts 95°
2026-04-22 06:34 51.41659 -2.60628 30773 ft 497 kts 95°
2026-04-22 06:34 51.41299 -2.55163 30085 ft 491 kts 95°
2026-04-22 06:35 51.40938 -2.49755 29433 ft 484 kts 95°
2026-04-22 06:35 51.40580 -2.44420 28797 ft 479 kts 95°
2026-04-22 06:35 51.40224 -2.39140 28180 ft 473 kts 95°
2026-04-22 06:35 51.39869 -2.33919 27545 ft 470 kts 95°
2026-04-22 06:36 51.39515 -2.28739 26929 ft 465 kts 95°
2026-04-22 06:36 51.39167 -2.23694 26327 ft 460 kts 95°
2026-04-22 06:36 51.38816 -2.18626 25722 ft 455 kts 95°
2026-04-22 06:36 51.38467 -2.13622 25125 ft 450 kts 95°
2026-04-22 06:37 51.38121 -2.08677 24546 ft 445 kts 95°
2026-04-22 06:37 51.37775 -2.03781 23958 ft 440 kts 95°
2026-04-22 06:37 51.37431 -1.98944 23332 ft 435 kts 95°
2026-04-22 06:37 51.37088 -1.94150 22759 ft 431 kts 95°
2026-04-22 06:38 51.36747 -1.89403 22202 ft 427 kts 95°
2026-04-22 06:38 51.36407 -1.84705 21638 ft 422 kts 95°
2026-04-22 06:38 51.36074 -1.80120 21090 ft 418 kts 95°
2026-04-22 06:38 51.35735 -1.75475 20535 ft 413 kts 95°
2026-04-22 06:39 51.35401 -1.70942 20001 ft 408 kts 95°
2026-04-22 06:39 51.35069 -1.66449 19455 ft 404 kts 95°
2026-04-22 06:39 51.34744 -1.62064 18937 ft 399 kts 95°
2026-04-22 06:39 51.34419 -1.57681 18387 ft 392 kts 94°
2026-04-22 06:40 51.34334 -1.53464 18292 ft 377 kts 87°
2026-04-22 06:40 51.34337 -1.49438 18284 ft 336 kts 87°
2026-04-22 06:40 51.34322 -1.45625 18025 ft 343 kts 87°
2026-04-22 06:40 51.34312 -1.41787 16297 ft 353 kts 89°
2026-04-22 06:41 51.34307 -1.37857 15461 ft 344 kts 90°
2026-04-22 06:41 51.34296 -1.34068 15596 ft 342 kts 90°
2026-04-22 06:41 51.34282 -1.30256 15716 ft 346 kts 90°
2026-04-22 06:41 51.34270 -1.26370 15455 ft 351 kts 90°
2026-04-22 06:42 51.34256 -1.22448 15192 ft 354 kts 90°
2026-04-22 06:42 51.34240 -1.18526 15156 ft 352 kts 91°
2026-04-22 06:42 51.34223 -1.14738 15399 ft 341 kts 90°
2026-04-22 06:42 51.34204 -1.10921 15409 ft 343 kts 90°
2026-04-22 06:43 51.34186 -1.07096 15411 ft 344 kts 90°
2026-04-22 06:43 51.34165 -1.03286 15409 ft 339 kts 90°
2026-04-22 06:43 51.34144 -0.99594 15401 ft 332 kts 90°
2026-04-22 06:43 51.34122 -0.95906 15405 ft 333 kts 90°
2026-04-22 06:44 51.34099 -0.92205 15404 ft 333 kts 90°
2026-04-22 06:44 51.34074 -0.88486 15254 ft 336 kts 90°
2026-04-22 06:44 51.34048 -0.84768 14617 ft 332 kts 91°
2026-04-22 06:44 51.34020 -0.81000 13844 ft 337 kts 91°
2026-04-22 06:45 51.33993 -0.77334 13016 ft 320 kts 91°
2026-04-22 06:45 51.33965 -0.73842 12211 ft 309 kts 91°
2026-04-22 06:45 51.33937 -0.70482 11431 ft 298 kts 91°
2026-04-22 06:45 51.33912 -0.67392 10672 ft 275 kts 91°
2026-04-22 06:46 51.33884 -0.64315 9882 ft 274 kts 91°
2026-04-22 06:46 51.33858 -0.61311 9068 ft 260 kts 91°
2026-04-22 06:46 51.33832 -0.58456 8262 ft 256 kts 91°
2026-04-22 06:46 51.33804 -0.55652 7464 ft 239 kts 91°
2026-04-22 06:47 51.33779 -0.53018 6711 ft 243 kts 92°
2026-04-22 06:47 51.33751 -0.50309 5924 ft 244 kts 92°
2026-04-22 06:47 51.33724 -0.47625 5145 ft 233 kts 92°
2026-04-22 06:47 51.33742 -0.45147 4322 ft 215 kts 85°
2026-04-22 06:48 51.34149 -0.42923 3447 ft 208 kts 67°
2026-04-22 06:48 51.34883 -0.41037 2934 ft 185 kts 60°
2026-04-22 06:48 51.35539 -0.39507 2952 ft 150 kts 60°
2026-04-22 06:48 51.36099 -0.38244 2944 ft 134 kts 60°
2026-04-22 06:49 51.36624 -0.37072 2958 ft 129 kts 61°
2026-04-22 06:49 51.37150 -0.35908 2973 ft 135 kts 61°
2026-04-22 06:49 51.37710 -0.34661 2982 ft 139 kts 60°
2026-04-22 06:49 51.38279 -0.33391 2985 ft 142 kts 61°
2026-04-22 06:50 51.38856 -0.32104 2983 ft 143 kts 60°
2026-04-22 06:50 51.39434 -0.30808 2980 ft 142 kts 60°
2026-04-22 06:50 51.40195 -0.29733 2935 ft 152 kts 41°
2026-04-22 06:50 51.41123 -0.28813 2600 ft 159 kts 40°
2026-04-22 06:51 51.42063 -0.27857 2214 ft 160 kts 41°
2026-04-22 06:51 51.42995 -0.26920 1943 ft 148 kts 40°
2026-04-22 06:51 51.43835 -0.26070 1959 ft 141 kts 41°
2026-04-22 06:51 51.44655 -0.25242 1967 ft 138 kts 41°
2026-04-22 06:52 51.45465 -0.24431 1959 ft 136 kts 41°
2026-04-22 06:52 51.46277 -0.23621 1962 ft 138 kts 41°
2026-04-22 06:52 51.46932 -0.22598 1955 ft 128 kts 62°
2026-04-22 06:52 51.47572 -0.21544 1967 ft 135 kts 50°
2026-04-22 06:53 51.48266 -0.20535 1979 ft 134 kts 51°
2026-04-22 06:53 51.48729 -0.19331 1935 ft 124 kts 80°
2026-04-22 06:53 51.48929 -0.17986 1982 ft 127 kts 77°
2026-04-22 06:53 51.49206 -0.16641 1979 ft 127 kts 75°
2026-04-22 06:54 51.49491 -0.15311 1982 ft 126 kts 74°
2026-04-22 06:54 51.49781 -0.13983 1983 ft 126 kts 74°
2026-04-22 06:54 51.50072 -0.12655 1984 ft 126 kts 75°
2026-04-22 06:54 51.50363 -0.11328 1972 ft 126 kts 74°
2026-04-22 06:55 51.50654 -0.10004 1976 ft 126 kts 75°
2026-04-22 06:55 51.50880 -0.08655 1953 ft 125 kts 88°
2026-04-22 06:55 51.50877 -0.07266 1976 ft 125 kts 90°
2026-04-22 06:55 51.50860 -0.05885 1981 ft 125 kts 91°
2026-04-22 06:56 51.50831 -0.04485 1978 ft 125 kts 92°
2026-04-22 06:56 51.50790 -0.03083 1868 ft 129 kts 92°
2026-04-22 06:56 51.50743 -0.01559 1431 ft 141 kts 91°
2026-04-22 06:56 51.50693 0.00036 1083 ft 144 kts 91°
2026-04-22 06:57 51.50645 0.01551 703 ft 128 kts 91°
2026-04-22 06:57 51.50602 0.02906 381 ft 117 kts 92°
2026-04-22 06:57 51.50563 0.04225 116 ft 118 kts 89°
2026-04-22 06:57 51.50523 0.05435 21 ft 88 kts 93°
2026-04-22 06:58 51.50509 0.05914 18 ft 31 kts 92°
2026-04-22 06:58 51.50500 0.06234 22 ft 19 kts 94°
2026-04-22 06:58 51.50447 0.06343 24 ft 12 kts 153°
2026-04-22 06:58 51.50427 0.06374 24 ft 0 kts 118°
2026-04-22 06:59 51.50415 0.06369 27 ft 8 kts 216°
2026-04-22 06:59 51.50415 0.06091 19 ft 33 kts 274°
2026-04-22 07:00 51.50418 0.05777 23 ft 17 kts 271°
2026-04-22 07:00 51.50422 0.05585 19 ft 19 kts 272°
2026-04-22 07:00 51.50432 0.05358 23 ft 21 kts 275°
2026-04-22 07:00 51.50450 0.05119 25 ft 22 kts 278°
2026-04-22 07:01 51.50463 0.04880 26 ft 17 kts 271°
2026-04-22 07:01 51.50468 0.04762 27 ft 16 kts 274°
2026-04-22 07:01 51.50475 0.04585 23 ft 16 kts 274°
2026-04-22 07:01 51.50483 0.04433 21 ft 9 kts 275°
2026-04-22 07:02 51.50466 0.04361 22 ft 3 kts 184°
2026-04-22 07:02 51.50454 0.04362 22 ft 2 kts 175°
2026-04-22 07:02 51.50449 0.04363 22 ft 0 kts 175°